QPF
0.00 0.00 0.00 0.00 0.00 0.00 0.00 0.00 0.00 0.00 0.00 0.00 0.00 0.00 0.00 0.00 0.00 0.00 0.00 0.00 0.00 0.00 0.00 0.00 0.00 0.00 0.00 0.00 0.00 0.00 0.00 0.00 0.00 0.00 0.00 0.00 0.00 0.00 0.00 0.00 0.00 0.00 0.00 0.00 0.00
0.00 0.00 0.00 0.00 0.00 0.00 0.00 0.00 0.00 0.00 0.00 0.00 0.00 0.00 0.00 0.00 0.00 0.00 0.00 0.00 0.00 0.00 0.00 0.00 0.00 0.00 0.00 0.00 0.00 0.00 0.00 0.00 0.00 0.00 0.00 0.00 0.00 0.00 0.00 0.00 0.00 0.00 0.00 0.00 0.00
0.00 0.00 0.00 0.00 0.00 0.00 0.00 0.00 0.00 0.00 0.00 0.00 0.00 0.00 0.00 0.00 0.00 0.00 0.00 0.00 0.00 0.00 0.00 0.00 0.00 0.00 0.00 0.00 0.00 0.00 0.00 0.00 0.00 0.00 0.00 0.00 0.00 0.00 0.00 0.00 0.00 0.00 0.00 0.00 0.00
0.00 0.00 0.00 0.00 0.00 0.00 0.00 0.00 0.00 0.00 0.00 0.00 0.00 0.00 0.00 0.00 0.00 0.00 0.00 0.00 0.00 0.00 0.00 0.00 0.00 0.00 0.00 0.00 0.00 0.00 0.00 0.00 0.00 0.00 0.00 0.00 0.00 0.00 0.00 0.00 0.00 0.00 0.00 0.00 0.00
0.00 0.00 0.00 0.00 0.00 0.00 0.00 0.00 0.00 0.00 0.00 0.00 0.00 0.00 0.00 0.00 0.00 0.00 0.00 0.00 0.00 0.00 0.00 0.00 0.00 0.00 0.00 0.00 0.00 0.00 0.00 0.00 0.00 0.00 0.00 0.00 0.00 0.00 0.00 0.00 0.00 0.00 0.00 0.00 0.00
0.00 0.00 0.00 0.00 0.00 0.00 0.00 0.00 0.00 0.00 0.00 0.00 0.00 0.00 0.00 0.00 0.00 0.00 0.00 0.00 0.00 0.00 0.00 0.00 0.00 0.00 0.00 0.00 0.00 0.00 0.00 0.00 0.00 0.00 0.00 0.00 0.00 0.00 0.00 0.00 0.00 0.00 0.00 0.00 0.00
0.00 0.00 0.00 0.00 0.00 0.00 0.00 0.00 0.00 0.00 0.00 0.00 0.00 0.00 0.00 0.00 0.00 0.00 0.00 0.00 0.00 0.00 0.00 0.00 0.00 0.00 0.00 0.00 0.00 0.00 0.00 0.00 0.00 0.00 0.00 0.00 0.00 0.00 0.00 0.00 0.00 0.00 0.00 0.00 0.00
0.00 0.00 0.00 0.00 0.00 0.00 0.00 0.00 0.00 0.00 0.00 0.00 0.00 0.00 0.00 0.00 0.00 0.00 0.00 0.00 0.00 0.00 0.00 0.00 0.00 0.00 0.00 0.00 0.00 0.00 0.00 0.00 0.00 0.00 0.00 0.00 0.00 0.00 0.00 0.00 0.00 0.00 0.00 0.00 0.00
0.00 0.00 0.00 0.00 0.00 0.00 0.00 0.00 0.00 0.00 0.00 0.00 0.00 0.00 0.00 0.00 0.00 0.00 0.00 0.00 0.00 0.00 0.00 0.00 0.00 0.00 0.00 0.00 0.00 0.00 0.00 0.00 0.00 0.00 0.00 0.00 0.00 0.00 0.00 0.00 0.00 0.00 0.00 0.00 0.00
0.00 0.00 0.00 0.00 0.00 0.00 0.00 0.00 0.00 0.00 0.00 0.00 0.00 0.00 0.00 0.00 0.00 0.00 0.00 0.00 0.00 0.00 0.00 0.00 0.00 0.00 0.00 0.00 0.00 0.00 0.00 0.00 0.00 0.00 0.00 0.00 0.00 0.00 0.00 0.00 0.00 0.00 0.00 0.00 0.00
0.00 0.00 0.00 0.00 0.00 0.00 0.00 0.00 0.00 0.00 0.00 0.00 0.00 0.00 0.00 0.00 0.00 0.00 0.00 0.00 0.00 0.00 0.00 0.00 0.00 0.00 0.00 0.00 0.00 0.00 0.00 0.00 0.00 0.00 0.00 0.00 0.00 0.00 0.00 0.00 0.00 0.00 0.00 0.00 0.00
0.00 0.00 0.00 0.00 0.00 0.00 0.00 0.00 0.00 0.00 0.00 0.00 0.00 0.00 0.00 0.00 0.00 0.00 0.00 0.00 0.00 0.00 0.00 0.00 0.00 0.00 0.00 0.00 0.00 0.00 0.00 0.00 0.00 0.00 0.00 0.00 0.00 0.00 0.00 0.00 0.00 0.00 0.00 0.00 0.00
0.00 0.00 0.00 0.00 0.00 0.00 0.00 0.00 0.00 0.00 0.00 0.00 0.00 0.00 0.00 0.00 0.00 0.00 0.00 0.00 0.00 0.00 0.00 0.00 0.00 0.00 0.00 0.00 0.00 0.00 0.00 0.00 0.00 0.00 0.00 0.00 0.00 0.00 0.00 0.00 0.00 0.00 0.00 0.00 0.00
0.00 0.00 0.00 0.00 0.00 0.00 0.00 0.00 0.00 0.00 0.00 0.00 0.00 0.00 0.00 0.00 0.00 0.00 0.00 0.00 0.00 0.00 0.00 0.00 0.00 0.00 0.00 0.00 0.00 0.00 0.00 0.00 0.00 0.00 0.00 0.00 0.00 0.00 0.00 0.00 0.00 0.00 0.00 0.00 0.00
0.00 0.00 0.00 0.00 0.00 0.00 0.00 0.00 0.00 0.00 0.00 0.00 0.00 0.00 0.00 0.00 0.00 0.00 0.00 0.00 0.00 0.00 0.00 0.00 0.00 0.00 0.00 0.00 0.00 0.00 0.00 0.00 0.00 0.00 0.00 0.00 0.00 0.00 0.00 0.00 0.00 0.00 0.00 0.00 0.00
0.00 0.00 0.00 0.00 0.00 0.00 0.00 0.00 0.00 0.00 0.00 0.00 0.00 0.00 0.00 0.00 0.00 0.00 0.00 0.00 0.00 0.00 0.00 0.00 0.00 0.00 0.00 0.00 0.00 0.00 0.00 0.00 0.00 0.00 0.00 0.00 0.00 0.00 0.00 0.00 0.00 0.00 0.00 0.00 0.00
0.00 0.00 0.00 0.00 0.00 0.00 0.00 0.00 0.00 0.00 0.00 0.00 0.00 0.00 0.00 0.00 0.00 0.00 0.00 0.00 0.00 0.00 0.00 0.00 0.00 0.00 0.00 0.00 0.00 0.00 0.00 0.01 0.01 0.00 0.00 0.00 0.00 0.00 0.00 0.00 0.00 0.00 0.00 0.00 0.00
0.00 0.00 0.00 0.00 0.00 0.00 0.00 0.00 0.00 0.00 0.00 0.00 0.00 0.00 0.00 0.00 0.00 0.00 0.00 0.00 0.00 0.00 0.00 0.00 0.00 0.00 0.00 0.00 0.00 0.00 0.01 0.02 0.01 0.00 0.00 0.00 0.00 0.00 0.00 0.00 0.00 0.00 0.00 0.00 0.00
0.00 0.00 0.00 0.00 0.00 0.00 0.00 0.00 0.00 0.00 0.00 0.00 0.00 0.00 0.00 0.00 0.00 0.00 0.00 0.00 0.00 0.00 0.00 0.00 0.00 0.00 0.00 0.00 0.00 0.00 0.00 0.00 0.03 0.01 0.02 0.00 0.00 0.00 0.00 0.00 0.00 0.00 0.00 0.00 0.00
0.00 0.00 0.00 0.00 0.00 0.00 0.00 0.00 0.00 0.00 0.00 0.00 0.00 0.00 0.00 0.00 0.00 0.00 0.00 0.00 0.00 0.00 0.00 0.00 0.00 0.00 0.00 0.00 0.00 0.00 0.00 0.03 0.07 0.05 0.02 0.00 0.00 0.00 0.00 0.00 0.00 0.00 0.00 0.00 0.00
0.00 0.00 0.00 0.00 0.00 0.00 0.00 0.00 0.00 0.00 0.00 0.00 0.00 0.00 0.00 0.00 0.00 0.00 0.00 0.00 0.00 0.00 0.00 0.00 0.00 0.00 0.00 0.00 0.00 0.01 0.01 0.02 0.05 0.05 0.02 0.00 0.01 0.01 0.00 0.00 0.00 0.00 0.00 0.00 0.00
0.00 0.00 0.00 0.00 0.00 0.00 0.00 0.00 0.00 0.00 0.00 0.00 0.00 0.00 0.00 0.00 0.00 0.00 0.00 0.00 0.00 0.00 0.00 0.00 0.00 0.00 0.00 0.00 0.00 0.00 0.01 0.03 0.05 0.04 0.03 0.02 0.00 0.00 0.00 0.00 0.00 0.00 0.00 0.01 0.00
0.00 0.00 0.00 0.00 0.00 0.00 0.00 0.00 0.00 0.00 0.00 0.00 0.00 0.00 0.00 0.00 0.00 0.00 0.00 0.00 0.00 0.00 0.00 0.00 0.00 0.00 0.00 0.00 0.00 0.00 0.00 0.00 0.02 0.04 0.02 0.03 0.00 0.00 0.00 0.00 0.00 0.00 0.00 0.01 0.00
0.00 0.00 0.00 0.00 0.00 0.00 0.00 0.00 0.00 0.00 0.00 0.00 0.00 0.00 0.00 0.00 0.00 0.00 0.00 0.00 0.00 0.00 0.00 0.02 0.00 0.01 0.00 0.00 0.00 0.00 0.00 0.00 0.02 0.04 0.03 0.02 0.00 0.00 0.00 0.00 0.00 0.00 0.00 0.01 0.00
0.00 0.00 0.00 0.00 0.00 0.00 0.00 0.00 0.00 0.00 0.00 0.00 0.00 0.00 0.00 0.00 0.00 0.00 0.00 0.00 0.00 0.00 0.00 0.02 0.00 0.01 0.00 0.00 0.00 0.00 0.00 0.00 0.00 0.01 0.02 0.01 0.00 0.00 0.00 0.00 0.00 0.00 0.00 0.00 0.00
0.00 0.00 0.00 0.00 0.00 0.00 0.00 0.00 0.00 0.00 0.00 0.00 0.00 0.00 0.00 0.00 0.00 0.00 0.00 0.00 0.00 0.00 0.01 0.03 0.01 0.01 0.00 0.00 0.00 0.00 0.00 0.00 0.00 0.00 0.01 0.02 0.01 0.00 0.00 0.00 0.00 0.00 0.00 0.00 0.00
0.00 0.00 0.00 0.00 0.00 0.00 0.00 0.00 0.00 0.00 0.00 0.00 0.00 0.00 0.00 0.00 0.00 0.00 0.00 0.00 0.00 0.00 0.00 0.01 0.01 0.01 0.00 0.00 0.00 0.00 0.01 0.02 0.03 0.02 0.04 0.03 0.01 0.00 0.00 0.01 0.00 0.00 0.00 0.00 0.00
MSLP
1019.96 1019.55 1019.14 1018.76 1018.38 1017.98 1017.58 1017.20 1016.87 1016.50 1016.09 1015.69 1015.32 1015.10 1014.71 1014.28 1013.89 1013.13 1012.37 1011.11 1010.85 1010.74 1010.59 1010.05 1009.62 1009.46 1009.16 1008.98 1008.86 1008.82 1008.63 1007.98 1007.08 1006.17 1004.39 1003.15 1002.34 1000.92 1000.15 999.77 999.17 999.15 999.45 999.34 998.78
1019.88 1019.46 1019.02 1018.58 1018.20 1017.86 1017.48 1017.06 1016.66 1016.27 1015.90 1015.53 1015.21 1014.95 1014.67 1014.35 1013.85 1012.36 1010.83 1010.45 1010.35 1010.40 1010.11 1009.54 1009.36 1009.06 1008.93 1008.53 1008.64 1008.41 1007.71 1007.15 1006.52 1005.42 1004.25 1003.43 1002.69 1001.52 1000.89 1000.27 999.72 999.30 999.47 999.34 999.93
1019.77 1019.27 1018.81 1018.40 1017.94 1017.50 1017.13 1016.79 1016.40 1015.97 1015.58 1015.25 1014.92 1014.68 1014.45 1014.30 1013.15 1010.72 1010.22 1010.20 1010.08 1010.06 1010.02 1009.78 1009.47 1009.10 1008.76 1008.59 1008.14 1007.67 1006.86 1006.87 1005.79 1005.43 1004.52 1003.57 1002.81 1001.86 1001.51 1000.77 1000.14 1000.02 1000.17 999.80 999.76
1019.74 1019.18 1018.69 1018.22 1017.71 1017.26 1016.89 1016.51 1016.11 1015.66 1015.26 1015.01 1014.74 1014.36 1014.02 1013.98 1012.06 1009.85 1009.60 1009.46 1009.42 1009.79 1009.98 1009.45 1009.21 1009.27 1008.81 1008.54 1007.84 1007.37 1006.78 1006.49 1005.84 1005.46 1004.38 1003.52 1002.84 1001.96 1001.40 1001.21 1000.19 999.76 1000.00 1000.19 1000.86
1019.70 1019.17 1018.59 1018.05 1017.57 1017.04 1016.58 1016.17 1015.79 1015.44 1015.07 1014.79 1014.63 1014.32 1013.69 1012.70 1010.27 1009.00 1009.11 1009.00 1009.36 1009.69 1009.44 1009.06 1008.66 1008.49 1008.31 1007.88 1007.66 1006.91 1006.42 1005.79 1005.04 1004.51 1003.89 1003.28 1002.47 1002.38 1001.20 1000.95 1000.50 999.89 1000.02 1000.13 1000.28
1019.56 1019.03 1018.46 1017.86 1017.30 1016.79 1016.32 1015.83 1015.40 1015.03 1014.72 1014.48 1014.38 1014.15 1013.67 1011.30 1008.02 1008.32 1008.50 1008.45 1008.73 1008.73 1008.54 1008.33 1008.31 1008.09 1007.84 1007.60 1007.55 1006.87 1006.22 1005.38 1004.66 1004.08 1003.49 1003.18 1002.47 1002.20 1000.83 1000.84 1000.58 1000.02 1000.17 1000.16 1000.41
1019.43 1018.88 1018.28 1017.61 1016.97 1016.43 1015.92 1015.39 1014.90 1014.59 1014.40 1014.02 1013.96 1013.86 1012.67 1010.10 1007.95 1007.75 1007.95 1007.79 1007.66 1007.87 1008.10 1007.98 1007.83 1008.26 1008.23 1008.21 1007.40 1007.03 1006.19 1005.09 1004.51 1003.90 1003.20 1003.25 1002.13 1001.31 1001.09 1000.83 1000.44 1000.04 999.75 999.76 1000.33
1019.19 1018.57 1017.99 1017.40 1016.77 1016.11 1015.55 1015.04 1014.63 1014.05 1013.86 1013.73 1013.75 1013.53 1011.19 1008.19 1007.82 1007.90 1007.76 1007.56 1007.25 1007.32 1007.54 1007.52 1007.76 1008.40 1008.60 1008.38 1007.83 1007.68 1006.73 1005.88 1004.59 1004.04 1003.48 1003.99 1001.74 1001.22 1000.96 1000.55 1000.18 999.96 999.54 998.97 999.71
1019.06 1018.37 1017.72 1017.08 1016.43 1015.77 1015.19 1014.56 1013.85 1013.39 1013.42 1013.37 1013.45 1012.93 1010.02 1007.95 1007.96 1007.75 1007.77 1007.59 1007.56 1007.47 1007.30 1007.18 1007.53 1008.23 1008.56 1008.73 1008.76 1007.95 1007.10 1006.05 1004.78 1004.48 1004.01 1003.59 1001.76 1000.87 1000.80 1000.45 999.91 999.55 999.60 999.21 998.60
1018.86 1018.16 1017.45 1016.74 1016.02 1015.43 1014.79 1013.61 1012.81 1012.95 1012.48 1012.59 1012.23 1012.04 1009.38 1007.86 1007.61 1007.64 1007.29 1007.28 1007.48 1007.38 1007.22 1007.06 1007.57 1008.07 1008.33 1008.77 1008.55 1007.89 1007.03 1006.06 1004.98 1004.51 1004.11 1003.55 1002.05 1001.02 1000.55 1000.16 999.67 999.45 999.05 998.86 998.72
1018.51 1017.78 1017.06 1016.36 1015.62 1015.20 1014.64 1013.24 1013.03 1013.03 1012.23 1011.12 1010.13 1009.43 1008.00 1007.64 1007.46 1007.41 1007.04 1007.30 1007.35 1007.40 1007.65 1007.35 1007.78 1008.09 1007.77 1007.41 1007.19 1006.87 1006.40 1005.90 1005.13 1004.80 1004.63 1004.16 1002.86 1001.53 1001.27 1000.64 999.94 998.93 998.60 998.49 998.34
1018.27 1017.45 1016.63 1015.83 1015.15 1014.84 1014.99 1013.74 1011.74 1011.50 1010.52 1009.69 1009.06 1008.17 1007.74 1007.64 1007.62 1007.07 1006.85 1007.47 1007.77 1007.97 1007.80 1007.85 1007.56 1007.26 1007.01 1006.76 1006.76 1006.65 1006.23 1005.71 1005.20 1005.20 1004.88 1004.41 1003.12 1001.99 1001.54 1000.98 1000.41 999.68 998.58 997.86 997.90
1018.04 1017.16 1016.35 1015.35 1014.64 1014.21 1013.36 1011.70 1010.63 1010.76 1010.80 1008.51 1007.50 1007.21 1007.18 1007.33 1007.11 1007.05 1006.96 1007.46 1007.84 1008.17 1008.22 1008.27 1007.85 1007.24 1006.96 1006.85 1006.87 1006.69 1006.55 1006.14 1005.76 1005.44 1005.03 1004.70 1003.71 1002.32 1001.03 1000.59 1000.01 999.17 998.52 997.77 997.10
1017.72 1016.82 1016.12 1015.17 1014.53 1013.01 1012.18 1010.95 1010.73 1010.98 1010.71 1008.17 1007.28 1006.83 1006.77 1006.83 1006.71 1006.45 1006.58 1007.50 1008.00 1008.22 1008.29 1008.07 1007.34 1007.01 1006.77 1006.96 1007.01 1006.92 1007.12 1006.66 1006.32 1006.18 1005.90 1005.46 1003.31 1003.33 1001.88 1000.37 1000.14 999.18 998.54 997.70 997.15
1017.42 1016.53 1015.69 1015.79 1014.96 1013.06 1011.34 1010.79 1010.82 1011.21 1009.98 1007.41 1006.79 1006.60 1006.45 1006.81 1006.37 1005.80 1006.48 1006.99 1007.53 1007.78 1008.14 1007.83 1007.14 1006.80 1006.93 1007.13 1007.49 1007.50 1007.68 1007.52 1007.26 1007.12 1006.55 1006.02 1005.13 1002.86 1002.50 1000.75 1000.06 999.26 998.61 997.70 996.66
1017.04 1016.23 1015.69 1014.39 1014.52 1012.22 1011.08 1010.85 1011.06 1011.47 1008.98 1007.17 1006.54 1006.38 1006.55 1006.30 1006.00 1005.86 1006.05 1006.29 1006.53 1007.08 1007.22 1006.99 1006.68 1006.97 1007.35 1007.56 1007.97 1008.03 1008.45 1008.18 1007.93 1008.06 1007.48 1006.44 1005.99 1003.15 1002.69 1001.48 1000.20 999.31 998.40 997.41 996.58
1016.55 1015.55 1015.47 1014.67 1013.28 1011.74 1011.36 1011.25 1011.46 1010.27 1007.82 1007.65 1007.16 1006.93 1006.98 1006.52 1006.07 1005.87 1006.18 1006.66 1006.88 1006.97 1007.32 1007.25 1007.18 1007.23 1007.71 1008.10 1008.24 1008.76 1009.33 1009.83 1009.76 1009.04 1007.61 1006.44 1005.61 1003.66 1001.70 1001.10 1000.31 999.55 998.56 997.37 996.50
1016.17 1014.86 1014.02 1013.59 1012.58 1012.04 1012.10 1012.05 1011.24 1009.27 1008.74 1008.39 1008.10 1007.74 1007.11 1006.14 1006.27 1006.24 1006.42 1006.78 1007.17 1007.85 1008.45 1008.53 1008.29 1008.53 1008.57 1008.50 1008.64 1008.85 1010.23 1011.21 1010.29 1009.44 1007.97 1006.73 1005.35 1002.67 1001.65 1000.84 1000.05 999.84 999.00 997.72 996.70
1015.98 1014.15 1013.61 1012.75 1012.54 1012.46 1013.05 1012.46 1011.12 1009.70 1009.26 1009.13 1008.90 1008.21 1007.49 1007.31 1007.61 1007.32 1007.22 1007.35 1008.08 1008.71 1009.92 1010.06 1009.24 1009.15 1008.54 1008.12 1008.56 1008.61 1009.25 1009.39 1010.06 1009.04 1008.59 1006.62 1004.46 1002.71 1001.17 1001.43 1001.37 1001.07 1000.28 999.27 997.48
1016.65 1014.53 1013.01 1012.17 1012.25 1012.74 1013.27 1012.49 1010.95 1010.19 1009.84 1009.84 1009.78 1009.30 1009.39 1009.18 1008.95 1008.60 1008.31 1008.13 1008.79 1009.30 1009.85 1010.44 1009.55 1009.19 1008.51 1008.25 1007.95 1008.55 1008.95 1009.47 1009.75 1009.78 1008.59 1006.51 1005.19 1004.09 1003.40 1002.95 1002.42 1001.97 1001.57 1000.30 998.27
1016.20 1014.33 1012.84 1012.13 1012.37 1013.12 1013.34 1012.22 1010.96 1010.33 1010.02 1010.25 1010.26 1010.28 1010.31 1010.18 1010.02 1009.78 1009.41 1009.22 1009.19 1009.60 1010.04 1010.55 1010.78 1009.79 1009.46 1008.57 1008.47 1008.87 1009.16 1010.21 1010.64 1010.33 1008.93 1007.46 1006.24 1004.91 1004.62 1004.24 1003.41 1002.45 1001.93 1001.24 999.24
1015.89 1014.15 1012.51 1012.28 1013.14 1012.96 1012.83 1012.05 1011.02 1010.22 1009.99 1010.14 1010.04 1010.37 1010.70 1010.70 1010.64 1010.34 1009.88 1009.71 1009.67 1010.12 1010.69 1011.37 1011.39 1010.57 1009.52 1008.13 1008.02 1008.37 1008.99 1009.68 1010.52 1009.58 1009.22 1008.73 1006.67 1005.20 1004.30 1003.95 1003.95 1002.64 1002.46 1001.01 998.37
1017.15 1014.27 1012.40 1012.46 1013.23 1013.37 1012.77 1012.08 1011.27 1010.19 1010.12 1010.44 1010.72 1010.92 1010.92 1011.01 1010.87 1010.10 1009.94 1009.68 1009.69 1010.29 1010.83 1011.47 1011.68 1011.37 1009.47 1008.06 1008.21 1008.03 1008.02 1008.42 1008.84 1008.75 1008.15 1007.60 1005.71 1003.72 1003.57 1003.26 1003.36 1002.89 1002.64 1000.99 999.00
1017.61 1015.27 1013.70 1013.47 1013.66 1013.96 1013.60 1012.66 1011.49 1010.44 1009.93 1010.03 1010.47 1010.62 1010.88 1010.86 1010.59 1010.26 1010.00 1009.66 1009.56 1009.84 1010.36 1011.06 1011.53 1011.73 1010.92 1009.50 1008.64 1007.80 1007.37 1007.19 1007.53 1007.62 1006.90 1005.93 1004.98 1003.59 1003.32 1003.14 1002.70 1003.23 1002.47 1001.41 999.99
1018.12 1017.01 1016.65 1015.51 1015.04 1015.07 1014.28 1013.08 1011.85 1010.89 1010.75 1010.85 1011.15 1011.25 1011.37 1011.25 1011.01 1010.67 1010.17 1009.62 1009.34 1009.45 1010.18 1011.13 1011.52 1011.21 1010.48 1009.24 1008.12 1006.93 1006.50 1006.17 1006.07 1006.00 1005.95 1005.66 1004.18 1004.19 1002.94 1002.61 1002.83 1003.01 1002.20 1001.64 1000.15
1019.38 1018.94 1018.15 1017.38 1016.22 1015.50 1014.39 1013.26 1012.40 1011.65 1011.62 1011.44 1011.68 1011.53 1011.50 1011.49 1011.19 1010.55 1010.36 1010.12 1009.69 1009.60 1010.01 1010.83 1011.26 1011.07 1009.89 1008.71 1007.27 1006.20 1006.11 1005.82 1005.53 1005.38 1004.92 1004.84 1004.08 1002.90 1001.60 1001.99 1001.90 1002.39 1001.93 1000.17 999.27
1020.30 1019.64 1019.23 1018.16 1016.98 1015.95 1014.88 1014.34 1013.45 1012.76 1011.92 1011.69 1011.64 1011.71 1011.59 1011.20 1010.65 1010.20 1009.93 1009.54 1009.38 1009.50 1009.80 1010.37 1010.77 1011.03 1009.84 1008.75 1007.43 1006.51 1006.67 1006.24 1006.21 1006.07 1005.82 1005.60 1005.13 1003.96 1002.85 1002.16 1002.31 1001.56 1001.03 1000.00 997.98
Thickness
5588 5591 5593 5595 5597 5599 5602 5604 5606 5608 5611 5615 5619 5623 5630 5636 5642 5652 5658 5675 5679 5685 5691 5697 5701 5704 5710 5710 5714 5719 5690 5693 5718 5730 5752 5777 5779 5807 5819 5813 5827 5836 5829 5840 5854
5584 5586 5589 5592 5594 5596 5598 5601 5603 5606 5609 5613 5616 5620 5625 5630 5637 5651 5668 5673 5677 5679 5684 5689 5690 5696 5694 5703 5701 5696 5689 5701 5732 5743 5748 5763 5771 5787 5790 5794 5804 5822 5833 5845 5841
5581 5583 5586 5588 5591 5594 5596 5598 5601 5604 5608 5611 5616 5619 5623 5627 5639 5659 5666 5669 5673 5676 5678 5683 5686 5687 5685 5693 5699 5702 5692 5714 5732 5738 5748 5753 5761 5778 5771 5772 5796 5804 5811 5829 5836
5578 5580 5582 5585 5588 5592 5594 5597 5600 5603 5607 5609 5613 5618 5623 5625 5638 5660 5667 5671 5674 5673 5672 5675 5677 5669 5674 5672 5694 5684 5704 5709 5722 5729 5736 5740 5758 5762 5770 5774 5803 5814 5816 5815 5805
5575 5577 5580 5583 5585 5589 5593 5596 5599 5602 5604 5607 5609 5613 5620 5627 5642 5664 5665 5668 5668 5667 5666 5668 5671 5671 5666 5680 5685 5685 5698 5707 5720 5727 5733 5741 5742 5748 5763 5782 5802 5808 5809 5805 5806
5573 5575 5577 5580 5584 5586 5590 5594 5598 5601 5604 5606 5607 5609 5614 5621 5664 5664 5665 5668 5666 5665 5667 5669 5668 5673 5673 5675 5673 5687 5692 5701 5711 5717 5726 5723 5733 5740 5764 5775 5783 5793 5792 5797 5796
5572 5574 5577 5580 5583 5586 5589 5592 5596 5599 5601 5605 5605 5607 5613 5626 5658 5662 5663 5664 5669 5667 5660 5668 5670 5662 5662 5658 5676 5678 5675 5693 5702 5710 5715 5718 5713 5729 5758 5765 5763 5780 5790 5794 5790
5573 5575 5578 5580 5583 5586 5589 5592 5594 5598 5600 5601 5602 5603 5613 5649 5654 5654 5658 5658 5666 5667 5663 5666 5665 5655 5652 5658 5661 5655 5664 5658 5695 5702 5708 5691 5687 5734 5749 5750 5752 5764 5779 5791 5788
5572 5576 5579 5582 5585 5588 5590 5594 5598 5600 5599 5599 5599 5599 5613 5646 5641 5648 5650 5646 5651 5656 5659 5663 5657 5643 5643 5632 5626 5639 5634 5648 5671 5689 5685 5680 5689 5729 5739 5740 5742 5754 5760 5775 5788
5572 5575 5579 5583 5587 5590 5593 5601 5605 5602 5604 5602 5603 5595 5619 5629 5639 5641 5649 5647 5640 5642 5642 5643 5636 5625 5624 5617 5602 5619 5629 5646 5656 5669 5664 5661 5679 5713 5725 5728 5731 5742 5750 5757 5770
5572 5576 5580 5584 5588 5590 5593 5601 5602 5596 5599 5604 5613 5612 5627 5635 5639 5634 5643 5636 5635 5631 5616 5629 5612 5603 5618 5628 5632 5633 5633 5632 5649 5655 5642 5646 5664 5692 5701 5706 5714 5731 5741 5744 5755
5570 5576 5581 5586 5590 5591 5587 5593 5605 5606 5599 5615 5618 5623 5628 5628 5615 5626 5638 5618 5614 5603 5614 5608 5600 5619 5628 5629 5623 5619 5617 5622 5634 5638 5639 5639 5647 5674 5687 5693 5703 5711 5727 5740 5745
5569 5575 5581 5587 5593 5594 5598 5607 5614 5611 5591 5614 5626 5623 5622 5623 5614 5615 5625 5615 5605 5598 5598 5591 5601 5617 5615 5609 5603 5604 5602 5607 5607 5619 5628 5621 5624 5653 5682 5688 5702 5713 5721 5733 5743
5568 5574 5580 5587 5592 5603 5602 5611 5610 5607 5579 5608 5614 5618 5622 5620 5609 5626 5627 5611 5598 5589 5592 5591 5602 5603 5601 5595 5594 5583 5593 5596 5595 5591 5578 5608 5599 5622 5654 5672 5680 5696 5704 5715 5727
5568 5574 5580 5580 5583 5595 5606 5609 5606 5595 5569 5616 5616 5627 5623 5609 5613 5616 5621 5606 5588 5588 5587 5578 5585 5586 5582 5582 5581 5575 5580 5579 5581 5572 5571 5585 5572 5618 5629 5647 5662 5676 5687 5705 5720
5570 5575 5578 5588 5584 5599 5606 5606 5597 5569 5568 5604 5616 5611 5605 5608 5610 5613 5607 5607 5600 5586 5585 5582 5595 5581 5571 5571 5568 5569 5553 5558 5561 5554 5543 5571 5566 5589 5604 5627 5647 5665 5676 5694 5712
5574 5579 5578 5581 5589 5600 5602 5594 5569 5565 5615 5598 5598 5601 5594 5593 5599 5599 5590 5580 5570 5565 5567 5578 5578 5580 5564 5550 5556 5543 5530 5503 5514 5527 5534 5570 5560 5569 5609 5619 5630 5644 5660 5683 5696
5577 5584 5586 5586 5591 5594 5588 5574 5566 5597 5592 5599 5593 5592 5587 5601 5594 5592 5583 5571 5579 5566 5551 5541 5539 5551 5554 5544 5537 5542 5524 5507 5514 5524 5539 5561 5547 5578 5601 5612 5623 5630 5644 5665 5683
5581 5591 5589 5592 5589 5587 5570 5558 5564 5587 5591 5581 5581 5579 5584 5586 5577 5576 5573 5570 5562 5558 5535 5527 5534 5545 5547 5552 5543 5537 5525 5539 5524 5543 5526 5548 5567 5588 5607 5598 5588 5595 5607 5628 5657
5577 5589 5593 5597 5592 5580 5562 5561 5575 5583 5581 5574 5558 5569 5554 5559 5559 5558 5558 5567 5554 5554 5547 5534 5526 5541 5543 5544 5544 5535 5541 5519 5520 5516 5519 5548 5556 5559 5562 5563 5571 5578 5586 5610 5633
5582 5589 5595 5597 5590 5571 5551 5566 5576 5580 5576 5563 5554 5550 5549 5546 5546 5542 5545 5551 5551 5547 5542 5532 5523 5528 5530 5530 5526 5523 5526 5513 5516 5508 5514 5521 5533 5557 5548 5550 5557 5569 5582 5591 5614
5587 5587 5599 5595 5569 5570 5565 5571 5575 5575 5573 5563 5560 5552 5542 5542 5537 5537 5535 5538 5546 5538 5526 5521 5511 5513 5524 5541 5543 5533 5518 5513 5500 5508 5516 5509 5520 5550 5548 5551 5551 5563 5572 5581 5616
5577 5590 5600 5591 5564 5561 5569 5571 5570 5571 5564 5555 5544 5542 5542 5533 5523 5539 5535 5542 5542 5533 5524 5519 5504 5494 5522 5538 5531 5530 5535 5530 5521 5514 5517 5518 5531 5562 5554 5552 5548 5552 5560 5586 5611
5576 5577 5585 5582 5575 5561 5557 5559 5561 5570 5566 5558 5549 5544 5535 5532 5535 5530 5530 5539 5542 5536 5534 5521 5508 5497 5495 5514 5519 5520 5531 5540 5527 5510 5525 5537 5537 5553 5547 5553 5551 5547 5557 5572 5593
5568 5569 5562 5556 5556 5551 5553 5556 5558 5557 5556 5545 5535 5531 5525 5519 5521 5519 5526 5532 5538 5538 5529 5516 5502 5512 5514 5522 5527 5533 5536 5542 5540 5538 5530 5530 5545 5537 5546 5555 5552 5551 5564 5572 5584
5547 5543 5545 5540 5552 5550 5553 5556 5552 5552 5542 5535 5523 5527 5521 5511 5514 5517 5519 5518 5520 5529 5524 5513 5504 5511 5517 5528 5535 5536 5536 5539 5541 5540 5541 5532 5544 5556 5563 5562 5563 5560 5565 5572 5588
5540 5539 5533 5534 5543 5546 5545 5541 5541 5539 5542 5538 5528 5519 5512 5514 5520 5523 5522 5524 5523 5520 5520 5516 5509 5501 5510 5525 5529 5523 5523 5525 5523 5526 5523 5517 5526 5542 5549 5557 5554 5566 5571 5580 5600